sat.trackr.live / text

‹ back to catalog

STARLINK-2589

NORAD 48371 · 2021-038U

PAYLOAD ACTIVE UNKNOWN

§ Identity

Operator
Country
US
Launch date
2021-05-04
Launch site
AFETR
Launch vehicle
Mass (kg)
RCS (m²)

Purposes: comms

External: N2YO · Heavens-Above · Gunter

§ Orbital elements

Epoch: 2026-09-19T05:07:48.381888Z

Period
94.01 min
Inclination
53.1607°
Eccentricity
0.0001338
Mean motion
15.31700475 rev/d
Perigee alt
469.8 km
Apogee alt
471.7 km
Semi-major
6,848.9 km
B*
7.5020e-6
RAAN
167.2727°
Arg perigee
95.3809°
Mean anomaly
264.7345°
Rev number
29,687

§ Raw data

STARLINK-25891 48371U 21038U   26262.21375442 -.00000132  00000+0  75020-5 0  99982 48371  53.1607 167.2727 0001338  95.3809 264.7345 15.31700475296874

JSON: /api/v1/satellites/48371 · /tle

For live sub-satellite position, see the globe view (requires WebGL).

§ Visibility from observer

Set your observer location to see the next 7 days of passes ≥ 10°. The values pass through the URL so the page stays shareable.

No JS? Fill the form by hand. The geolocation button needs JavaScript.